Regional Weather Roundup
Issued by NWS Charleston, SC

Current Version | Previous Version | Graphics & Text | Print | Product List | Glossary On
Versions: 1 2 3 4 5 6 7 8 9 10 11 12 13 14 15 16 17 18 19 20 21 22 23 24 25 26 27 28 29 30 31 32 33 34 35 36 37 38 39 40 41 42 43 44 45 46 47 48 49 50
105 ASUS42 KCHS 250228 RWRCHS REGIONAL WEATHER ROUNDUP NATIONAL WEATHER SERVICE CHARLESTON SC 1000 PM EDT WED AUG 24 2016 NOTE: "FAIR" INDICATES FEW OR NO CLOUDS BELOW 12,000 FEET WITH NO SIGNIFICANT WEATHER AND/OR OBSTRUCTIONS TO VISIBILITY. NOT ALL STATIONS ARE QUALITY CONTROLLED. USE DATA WITH CAUTION... ESPECIALLY DEWPOINT OBSERVATIONS. SCZ027-030-031-034>040-042>050-250300- ...SOUTHEAST SOUTH CAROLINA... CITY SKY/WX TMP DP RH WIND PRES REMARKS N CHARLESTON PTCLDY 78 65 63 SE5 30.19R WATERFRONT PRK N/A 81 70 69 E7 30.16R MOUNT PLEASANT FAIR 72 70 94 CALM 30.19S JOHNS ISLAND FAIR 75 68 78 CALM 30.19S PINOPOLIS N/A 79 68 69 CALM 30.12R MONCKS CORNER FAIR 70 66 88 CALM 30.20R SUMMERVILLE FAIR 72 68 88 CALM 30.21R BEAUFORT MCAS CLEAR 77 68 73 CALM 30.19R BEAUFORT ARPT FAIR 75 66 73 CALM 30.18S HILTON HEAD IS PTCLDY 81 66 61 VRB5 30.20R WALTERBORO CLEAR 77 66 69 SE3 30.20S ALLENDALE FAIR 77 66 69 CALM 30.19R ...SOUTHERN MIDLANDS AND PEE DEE... CITY SKY/WX TMP DP RH WIND PRES REMARKS GEORGETOWN FAIR 70 66 88 CALM 30.21R KINGSTREE FAIR 70 63 78 CALM 30.20R ORANGEBURG CLEAR 76 68 76 CALM 30.20R BARNWELL NOT AVBL AIKEN MOCLDY 79 68 69 SE3 30.25R MANNING FAIR 70 64 83 CALM 30.20R COLUMBIA PTCLDY 81 65 58 CALM 30.19R SUMTER CLEAR 77 65 68 SE1 30.18R FLORENCE PTCLDY 76 66 71 CALM 30.20R MYRTLE BEACH PTCLDY 79 57 47 NE6 30.21R N MYRTLE BEACH PTCLDY 71 65 81 CALM 30.19R $$ GAZ063-065-086>088-099>101-113>116-118-119-134>141-150-250300- ...SOUTHEAST GEORGIA... CITY SKY/WX TMP DP RH WIND PRES REMARKS SAVANNAH ARPT MOCLDY 78 65 63 E3 30.19R HUNTER AAF PTCLDY 78 70 78 CALM 30.17R FORT STEWART PTCLDY 75 69 80 CALM 30.16S STATESBORO CLEAR 77 70 78 CALM 30.20R SYLVANIA CLEAR N/A N/A N/A CALM 30.20R CLAXTON FAIR 75 69 83 CALM 30.20R HAZE ...CSRA...CENTRAL AND FAR SOUTHEAST GEORGIA... CITY SKY/WX TMP DP RH WIND PRES REMARKS THOMSON PTCLDY 76 74 95 MISG 30.26R AUGUSTA-BUSH MOCLDY 76 72 87 SE6 30.19R AUGUSTA-DANIEL PTCLDY 81 69 67 N5 30.21R SWAINSBORO FAIR 79 68 69 SE5 30.21R VIDALIA CLEAR 79 72 78 S3 30.20R EASTMAN FAIR 81 58 45 SE3 30.21R HAZLEHURST FAIR 80 71 72 CALM 30.18R ALMA CLEAR 78 68 71 E3 30.18R WAYCROSS N/A 80 74 84 CALM 30.18S JESUP FAIR 73 72 94 CALM 30.19R BAXLEY FAIR 79 73 83 CALM 30.19R BRUNSWICK CLEAR 75 72 88 CALM 30.18S SAINT SIMONS CLEAR 82 69 64 E10 30.17R $$ SCZ027-028-034-036>038-045-046-048>050-GAZ119-141-250300- ...LAKE AND SUPPLEMENTAL COASTAL OBSERVATIONS... STATION/POSITION TIME TEMP WIND PRES WAVE SWELL AIR SEA DIR/SP/G HT/PER HT/PER/DIR (UTC) (F) (DEG/KT/KT) (MB) (FT/S) (FT/S/D) WINYAH BAY 0100 79 90/ 4 1021.0 LAKE MURRAY 0100 84 120/ 3/ 6 1021.3R ACE BASIN NERRS 0100 77 CALM 1022.0S FORT PULASKI 0200 82 86 1022.7R SAPELO ISLAND 0200 81 80/ 6 1022.0R $$ ANZ835-935-AMZ111-154-330-350-352-354-370-450-454-472-250300- ...C-MAN AND BUOY OBSERVATIONS... STATION/POSITION TIME TEMP WIND PRES WAVE SWELL AIR SEA DIR/SP/G HT/PER HT/PER/DIR (UTC) (F) (DEG/KT/KT) (MB) (FT/S) (FT/S/D) BUOY 41004 0150 81 84 60/ 12/ 14 1021.3R 3/ 7 2/ 80/ 7 BUOY 41008 0150 83 85 80/ 14/ 17 1021.3R 5/ 6 2/130/11 FOLLY BEACH CMAN 0200 81 70/ 10/ 11 1022.6R CAPERS NEARSHORE 0108 81 84 90/ 12/ 16 1021.7R FRIPP NEARSHORE 0108 83 86 100/ 14/ 17 1021.3R STATION/POSITION TIME TEMP WIND PRES WAVE SWELL AIR SEA DIR/SP/G HT/PER HT/PER/DIR (UTC) (F) (DEG/KT/KT) (MB) (FT/S) (FT/S/D) 5E ST. MARYS GA 0201 85 N/A 5/ 6 FRYING PAN BUOY 0200 82 85 30/ 12/ 14 1021.5R BUOY 41025 0150 81 84 80/ 14/ 16 1022.9R 3/11 2/100/11 CAPE LOOKOUT NC 0200 81 100/ 13/ 14 1022.2R BUOY 41002 0150 82 85 60/ 17/ 19 1019.7R 4/10 2/110/10 BUOY 41010 NOT AVBL ST AUGUSTINE FL 0200 82 83 50/ 19/ 21 1021.5R $$

USA.gov is the U.S. government's official web portal to all federal, state and local government web resources and services.